Simultaneous Nadir Overpasses (SNOs) Predictions

Prediction of SNOs between LANDSAT-8 and METOP-B Satellite Orbit:

Table of predicted SNOs for the next 14.0 days since TLE Epoch: 6/16/2017
Index Date (LANDSAT-8) Time (LANDSAT-8) Lat,Lon (LANDSAT-8) SZA (LANDSAT-8 ) Date (METOP-B) Time (METOP-B) Lat,Lon (METOP-B) SZA (METOP-B ) Distance(km) Time Diff (sec)
1 06/19/2017 04:00:58 81.17, 160.47 59.96 06/19/2017 04:00:43 81.18, 160.50 59.96 0.82 15
2 06/19/2017 04:50:23 -81.21, -31.23 119.95 06/19/2017 04:51:21 -81.21, -31.16 119.92 1.30 58
3 06/21/2017 23:35:14 81.17,-133.05 59.94 06/21/2017 23:35:04 81.17,-133.16 59.92 1.88 10
4 06/22/2017 00:24:40 -81.19, 34.90 120.02 06/22/2017 00:25:43 -81.19, 34.81 120.00 1.56 63
5 06/24/2017 19:09:29 81.19, -66.23 60.02 06/24/2017 19:09:23 81.19, -66.08 60.04 2.68 6
6 06/24/2017 19:58:55 -81.21, 101.75 119.93 06/24/2017 20:00:02 -81.21, 101.91 119.89 2.78 67
7 06/27/2017 13:54:42 -80.56,-175.80 121.23 06/27/2017 13:53:28 -80.77,-176.50 121.14 26.56 74
8 06/27/2017 14:43:44 81.19, 0.19 60.10 06/27/2017 14:43:43 81.19, 0.24 60.10 0.82 1
9 06/27/2017 15:33:10 -81.22, 168.20 119.85 06/27/2017 15:34:22 -81.21, 168.24 119.82 0.85 72
10 06/30/2017 09:28:35 -81.17,-101.43 119.83 06/30/2017 09:27:25 -81.17,-101.45 119.87 0.37 70




NCC Satellite Simultaneous Nadir Overpasses (SNOs) Prediction Service
